Wetterdaten: aktuell Samstag, 25.05.2019 17:10
Datum Zeit Temp. I. Temp. A. Feuchte I. Feuchte A. Luftdruck Regen Wind Richtung Richtung Taupunkt Windchill Windben Empfang
25.05.2019 17:10 23,5 C 23,4 C 45 % 45 % 1012,5 hPa 0,0 l/m 0,0 km/h (0 Bft) N 0 10,8 C 23,4 C 0,0 km/h (0 Bft) 100,00 %
25.05.2019 17:05 23,5 C 23,7 C 46 % 43 % 1012,5 hPa 0,0 l/m 0,0 km/h (0 Bft) N 0 10,4 C 23,7 C 0,0 km/h (0 Bft) 100,00 %
25.05.2019 17:00 23,5 C 23,8 C 46 % 44 % 1012,4 hPa 0,0 l/m 0,0 km/h (0 Bft) O-SO 112 10,8 C 23,8 C 1,6 km/h (1 Bft) 100,00 %
25.05.2019 16:55 23,4 C 24,1 C 46 % 42 % 1012,4 hPa 0,0 l/m 0,0 km/h (0 Bft) NW 315 10,4 C 24,1 C 3,2 km/h (1 Bft) 100,00 %
25.05.2019 16:50 23,4 C 24,1 C 46 % 43 % 1012,4 hPa 0,0 l/m 0,0 km/h (0 Bft) W-NW 292 10,7 C 24,1 C 1,6 km/h (1 Bft) 100,00 %
25.05.2019 16:45 23,4 C 23,8 C 46 % 46 % 1012,5 hPa 0,0 l/m 0,0 km/h (0 Bft) SW 225 11,5 C 23,8 C 1,6 km/h (1 Bft) 100,00 %
25.05.2019 16:40 23,4 C 23,6 C 46 % 44 % 1012,6 hPa 0,0 l/m 0,0 km/h (0 Bft) W-NW 292 10,6 C 23,6 C 1,6 km/h (1 Bft) 100,00 %
25.05.2019 16:35 23,4 C 23,4 C 46 % 45 % 1012,6 hPa 0,0 l/m 0,0 km/h (0 Bft) W-NW 292 10,8 C 23,4 C 3,2 km/h (1 Bft) 100,00 %
25.05.2019 16:30 23,3 C 23,5 C 46 % 47 % 1012,6 hPa 0,0 l/m 0,0 km/h (0 Bft) SW 225 11,5 C 23,5 C 6,4 km/h (2 Bft) 100,00 %
25.05.2019 16:25 23,3 C 23,6 C 46 % 46 % 1012,7 hPa 0,0 l/m 0,0 km/h (0 Bft) NW 315 11,3 C 23,6 C 6,4 km/h (2 Bft) 100,00 %
25.05.2019 16:20 23,3 C 23,8 C 45 % 46 % 1012,7 hPa 0,0 l/m 0,0 km/h (0 Bft) SW 225 11,5 C 23,8 C 3,2 km/h (1 Bft) 100,00 %
25.05.2019 16:15 23,3 C 23,9 C 45 % 43 % 1012,7 hPa 0,0 l/m 0,0 km/h (0 Bft) O-NO 67 10,5 C 23,9 C 3,2 km/h (1 Bft) 100,00 %
25.05.2019 16:10 23,3 C 24,1 C 45 % 43 % 1012,7 hPa 0,0 l/m 0,0 km/h (0 Bft) SO 135 10,7 C 24,1 C 1,6 km/h (1 Bft) 100,00 %
25.05.2019 16:05 23,3 C 24,0 C 45 % 46 % 1012,8 hPa 0,0 l/m 0,0 km/h (0 Bft) W-NW 292 11,7 C 24,0 C 1,6 km/h (1 Bft) 100,00 %
25.05.2019 16:00 23,3 C 23,9 C 45 % 46 % 1012,8 hPa 0,0 l/m 0,0 km/h (0 Bft) N 360 11,6 C 23,9 C 3,2 km/h (1 Bft) 100,00 %
25.05.2019 15:55 23,3 C 23,8 C 45 % 44 % 1012,8 hPa 0,0 l/m 0,0 km/h (0 Bft) SO 135 10,8 C 23,8 C 4,8 km/h (1 Bft) 100,00 %
25.05.2019 15:50 23,3 C 23,8 C 45 % 43 % 1012,9 hPa 0,0 l/m 0,0 km/h (0 Bft) SW 225 10,5 C 23,8 C 3,2 km/h (1 Bft) 100,00 %
25.05.2019 15:45 23,2 C 23,7 C 45 % 41 % 1012,9 hPa 0,0 l/m 0,0 km/h (0 Bft) N-NW 337 9,7 C 23,7 C 3,2 km/h (1 Bft) 100,00 %
25.05.2019 15:40 23,2 C 23,6 C 45 % 46 % 1012,9 hPa 0,0 l/m 0,0 km/h (0 Bft) W-SW 247 11,3 C 23,6 C 3,2 km/h (1 Bft) 100,00 %
25.05.2019 15:35 23,2 C 23,7 C 45 % 44 % 1013,0 hPa 0,0 l/m 0,0 km/h (0 Bft) W-SW 247 10,7 C 23,7 C 4,8 km/h (1 Bft) 100,00 %
25.05.2019 15:30 23,2 C 24,0 C 45 % 43 % 1012,9 hPa 0,0 l/m 3,2 km/h (1 Bft) SW 225 10,6 C 24,0 C 9,7 km/h (2 Bft) 100,00 %
25.05.2019 15:25 23,2 C 24,2 C 46 % 47 % 1012,9 hPa 0,0 l/m 0,0 km/h (0 Bft) NW 315 12,2 C 24,2 C 4,8 km/h (1 Bft) 100,00 %
25.05.2019 15:20 23,1 C 23,9 C 46 % 43 % 1013,0 hPa 0,0 l/m 0,0 km/h (0 Bft) NW 315 10,5 C 23,9 C 3,2 km/h (1 Bft) 100,00 %
25.05.2019 15:15 23,1 C 23,7 C 46 % 48 % 1013,0 hPa 0,0 l/m 0,0 km/h (0 Bft) SO 135 12,0 C 23,7 C 3,2 km/h (1 Bft) 100,00 %
25.05.2019 15:10 23,1 C 23,4 C 46 % 45 % 1013,0 hPa 0,0 l/m 0,0 km/h (0 Bft) SW 225 10,8 C 23,4 C 3,2 km/h (1 Bft) 100,00 %
25.05.2019 15:05 23,1 C 23,3 C 46 % 44 % 1013,1 hPa 0,0 l/m 0,0 km/h (0 Bft) SO 135 10,4 C 23,3 C 1,6 km/h (1 Bft) 100,00 %
25.05.2019 15:00 23,1 C 23,3 C 46 % 45 % 1013,1 hPa 0,0 l/m 0,0 km/h (0 Bft) S-SW 202 10,7 C 23,3 C 3,2 km/h (1 Bft) 100,00 %
25.05.2019 14:55 23,1 C 23,5 C 46 % 44 % 1013,1 hPa 0,0 l/m 0,0 km/h (0 Bft) N 360 10,5 C 23,5 C 4,8 km/h (1 Bft) 100,00 %
25.05.2019 14:50 23,1 C 23,8 C 45 % 45 % 1013,2 hPa 0,0 l/m 0,0 km/h (0 Bft) SW 225 11,1 C 23,8 C 3,2 km/h (1 Bft) 100,00 %
25.05.2019 14:45 23,1 C 24,3 C 46 % 45 % 1013,2 hPa 0,0 l/m 0,0 km/h (0 Bft) NW 315 11,6 C 24,3 C 4,8 km/h (1 Bft) 100,00 %
25.05.2019 14:40 23,1 C 24,6 C 46 % 42 % 1013,2 hPa 0,0 l/m 0,0 km/h (0 Bft) W-NW 292 10,8 C 24,6 C 3,2 km/h (1 Bft) 100,00 %
25.05.2019 14:35 23,0 C 24,6 C 46 % 41 % 1013,3 hPa 0,0 l/m 0,0 km/h (0 Bft) N 0 10,5 C 24,6 C 0,0 km/h (0 Bft) 100,00 %
25.05.2019 14:30 23,0 C 24,6 C 46 % 43 % 1013,4 hPa 0,0 l/m 0,0 km/h (0 Bft) W-NW 292 11,2 C 24,6 C 1,6 km/h (1 Bft) 100,00 %
25.05.2019 14:25 22,9 C 24,5 C 46 % 42 % 1013,3 hPa 0,0 l/m 0,0 km/h (0 Bft) SW 225 10,7 C 24,5 C 4,8 km/h (1 Bft) 100,00 %
25.05.2019 14:20 22,9 C 24,3 C 46 % 45 % 1013,3 hPa 0,0 l/m 0,0 km/h (0 Bft) N-NW 337 11,6 C 24,3 C 3,2 km/h (1 Bft) 100,00 %
25.05.2019 14:15 22,9 C 24,2 C 46 % 41 % 1013,3 hPa 0,0 l/m 0,0 km/h (0 Bft) NW 315 10,1 C 24,2 C 1,6 km/h (1 Bft) 100,00 %
25.05.2019 14:10 22,9 C 24,3 C 46 % 44 % 1013,4 hPa 0,0 l/m 1,6 km/h (1 Bft) SW 225 11,3 C 24,3 C 4,8 km/h (1 Bft) 100,00 %
25.05.2019 14:05 22,9 C 24,3 C 46 % 40 % 1013,3 hPa 0,0 l/m 1,6 km/h (1 Bft) SW 225 9,8 C 24,3 C 6,4 km/h (2 Bft) 100,00 %
25.05.2019 14:00 22,8 C 23,9 C 46 % 45 % 1013,4 hPa 0,0 l/m 0,0 km/h (0 Bft) W 270 11,2 C 23,9 C 1,6 km/h (1 Bft) 100,00 %
25.05.2019 13:55 22,8 C 23,8 C 46 % 40 % 1013,4 hPa 0,0 l/m 0,0 km/h (0 Bft) O-NO 67 9,4 C 23,8 C 4,8 km/h (1 Bft) 100,00 %
25.05.2019 13:50 22,8 C 23,9 C 46 % 42 % 1013,4 hPa 0,0 l/m 1,6 km/h (1 Bft) W-SW 247 10,2 C 23,9 C 6,4 km/h (2 Bft) 100,00 %
25.05.2019 13:45 22,8 C 24,1 C 46 % 41 % 1013,4 hPa 0,0 l/m 1,6 km/h (1 Bft) N-NW 337 10,0 C 24,1 C 4,8 km/h (1 Bft) 100,00 %
25.05.2019 13:40 22,7 C 24,1 C 46 % 46 % 1013,5 hPa 0,0 l/m 0,0 km/h (0 Bft) SO 135 11,7 C 24,1 C 3,2 km/h (1 Bft) 100,00 %
25.05.2019 13:35 22,7 C 23,9 C 45 % 45 % 1013,6 hPa 0,0 l/m 0,0 km/h (0 Bft) W-SW 247 11,2 C 23,9 C 4,8 km/h (1 Bft) 100,00 %
25.05.2019 13:30 22,7 C 23,7 C 45 % 44 % 1013,6 hPa 0,0 l/m 0,0 km/h (0 Bft) SW 225 10,7 C 23,7 C 3,2 km/h (1 Bft) 100,00 %
25.05.2019 13:25 22,7 C 23,6 C 45 % 43 % 1013,6 hPa 0,0 l/m 0,0 km/h (0 Bft) SW 225 10,3 C 23,6 C 3,2 km/h (1 Bft) 100,00 %
25.05.2019 13:20 22,7 C 23,7 C 46 % 41 % 1013,7 hPa 0,0 l/m 0,0 km/h (0 Bft) W-SW 247 9,7 C 23,7 C 3,2 km/h (1 Bft) 100,00 %
25.05.2019 13:15 22,7 C 23,7 C 46 % 42 % 1013,9 hPa 0,0 l/m 0,0 km/h (0 Bft) W-SW 247 10,0 C 23,7 C 4,8 km/h (1 Bft) 100,00 %
25.05.2019 13:10 22,6 C 23,8 C 47 % 43 % 1013,9 hPa 0,0 l/m 1,6 km/h (1 Bft) W-SW 247 10,5 C 23,8 C 4,8 km/h (1 Bft) 100,00 %
25.05.2019 13:05 22,6 C 23,8 C 47 % 45 % 1013,9 hPa 0,0 l/m 1,6 km/h (1 Bft) SW 225 11,1 C 23,8 C 4,8 km/h (1 Bft) 100,00 %
25.05.2019 13:00 22,6 C 23,7 C 47 % 47 % 1014,1 hPa 0,0 l/m 0,0 km/h (0 Bft) W-SW 247 11,7 C 23,7 C 4,8 km/h (1 Bft) 100,00 %
25.05.2019 12:55 22,6 C 23,6 C 46 % 46 % 1014,2 hPa 0,0 l/m 0,0 km/h (0 Bft) N-NW 337 11,3 C 23,6 C 4,8 km/h (1 Bft) 100,00 %
25.05.2019 12:50 22,6 C 23,4 C 47 % 45 % 1014,2 hPa 0,0 l/m 0,0 km/h (0 Bft) S-SO 157 10,8 C 23,4 C 3,2 km/h (1 Bft) 100,00 %
25.05.2019 12:45 22,6 C 23,6 C 47 % 44 % 1014,2 hPa 0,0 l/m 1,6 km/h (1 Bft) W-SW 247 10,6 C 23,6 C 4,8 km/h (1 Bft) 100,00 %
25.05.2019 12:40 22,6 C 23,8 C 47 % 43 % 1014,3 hPa 0,0 l/m 0,0 km/h (0 Bft) W-NW 292 10,5 C 23,8 C 6,4 km/h (2 Bft) 100,00 %
25.05.2019 12:35 22,6 C 23,7 C 48 % 47 % 1014,3 hPa 0,0 l/m 0,0 km/h (0 Bft) S-SO 157 11,7 C 23,7 C 1,6 km/h (1 Bft) 100,00 %
25.05.2019 12:30 22,6 C 23,4 C 48 % 48 % 1014,5 hPa 0,0 l/m 0,0 km/h (0 Bft) N-NW 337 11,8 C 23,4 C 1,6 km/h (1 Bft) 100,00 %
25.05.2019 12:25 22,5 C 23,1 C 48 % 53 % 1014,4 hPa 0,0 l/m 0,0 km/h (0 Bft) W-SW 247 13,0 C 23,1 C 3,2 km/h (1 Bft) 100,00 %
25.05.2019 12:20 22,5 C 23,1 C 48 % 47 % 1014,4 hPa 0,0 l/m 0,0 km/h (0 Bft) SW 225 11,2 C 23,1 C 3,2 km/h (1 Bft) 100,00 %
25.05.2019 12:15 22,5 C 22,9 C 48 % 48 % 1014,5 hPa 0,0 l/m 0,0 km/h (0 Bft) NW 315 11,3 C 22,9 C 8,0 km/h (2 Bft) 100,00 %
25.05.2019 12:10 22,5 C 23,2 C 49 % 47 % 1014,6 hPa 0,0 l/m 1,6 km/h (1 Bft) W-SW 247 11,3 C 23,2 C 8,0 km/h (2 Bft) 100,00 %
25.05.2019 12:05 22,5 C 23,1 C 49 % 49 % 1014,6 hPa 0,0 l/m 0,0 km/h (0 Bft) N-NW 337 11,8 C 23,1 C 3,2 km/h (1 Bft) 100,00 %
25.05.2019 12:00 22,4 C 22,9 C 49 % 54 % 1014,6 hPa 0,0 l/m 0,0 km/h (0 Bft) O-NO 67 13,1 C 22,9 C 3,2 km/h (1 Bft) 100,00 %
25.05.2019 11:55 22,4 C 22,8 C 49 % 51 % 1014,6 hPa 0,0 l/m 0,0 km/h (0 Bft) N 360 12,1 C 22,8 C 3,2 km/h (1 Bft) 100,00 %
25.05.2019 11:50 22,4 C 22,7 C 49 % 50 % 1014,6 hPa 0,0 l/m 0,0 km/h (0 Bft) O-NO 67 11,7 C 22,7 C 3,2 km/h (1 Bft) 100,00 %
25.05.2019 11:45 22,4 C 22,7 C 49 % 52 % 1014,7 hPa 0,0 l/m 0,0 km/h (0 Bft) W-SW 247 12,3 C 22,7 C 3,2 km/h (1 Bft) 100,00 %
25.05.2019 11:40 22,4 C 22,6 C 49 % 51 % 1014,7 hPa 0,0 l/m 0,0 km/h (0 Bft) W-NW 292 11,9 C 22,6 C 1,6 km/h (1 Bft) 100,00 %
25.05.2019 11:35 22,4 C 22,7 C 49 % 50 % 1014,6 hPa 0,0 l/m 0,0 km/h (0 Bft) NW 315 11,7 C 22,7 C 1,6 km/h (1 Bft) 100,00 %
25.05.2019 11:30 22,4 C 22,7 C 49 % 54 % 1014,6 hPa 0,0 l/m 0,0 km/h (0 Bft) N-NO 22 12,9 C 22,7 C 1,6 km/h (1 Bft) 100,00 %
25.05.2019 11:25 22,3 C 22,5 C 49 % 53 % 1014,6 hPa 0,0 l/m 0,0 km/h (0 Bft) N-NO 22 12,4 C 22,5 C 3,2 km/h (1 Bft) 100,00 %
25.05.2019 11:20 22,3 C 22,2 C 49 % 56 % 1014,6 hPa 0,0 l/m 0,0 km/h (0 Bft) N 0 13,0 C 22,2 C 0,0 km/h (0 Bft) 100,00 %
25.05.2019 11:15 22,3 C 22,1 C 49 % 53 % 1014,6 hPa 0,0 l/m 0,0 km/h (0 Bft) N-NO 22 12,1 C 22,1 C 3,2 km/h (1 Bft) 100,00 %
25.05.2019 11:10 22,3 C 22,0 C 49 % 54 % 1014,6 hPa 0,0 l/m 0,0 km/h (0 Bft) N-NO 22 12,3 C 22,0 C 3,2 km/h (1 Bft) 100,00 %
25.05.2019 11:05 22,3 C 21,9 C 49 % 56 % 1014,6 hPa 0,0 l/m 0,0 km/h (0 Bft) N 360 12,7 C 21,9 C 1,6 km/h (1 Bft) 100,00 %
25.05.2019 11:00 22,3 C 21,7 C 49 % 57 % 1014,6 hPa 0,0 l/m 0,0 km/h (0 Bft) NW 315 12,8 C 21,7 C 1,6 km/h (1 Bft) 100,00 %
25.05.2019 10:55 22,2 C 21,5 C 49 % 54 % 1014,5 hPa 0,0 l/m 0,0 km/h (0 Bft) S-SO 157 11,8 C 21,5 C 1,6 km/h (1 Bft) 100,00 %
25.05.2019 10:50 22,2 C 21,4 C 49 % 56 % 1014,6 hPa 0,0 l/m 0,0 km/h (0 Bft) S-SO 157 12,3 C 21,4 C 1,6 km/h (1 Bft) 100,00 %
25.05.2019 10:45 22,2 C 21,4 C 49 % 58 % 1014,5 hPa 0,0 l/m 0,0 km/h (0 Bft) N 360 12,8 C 21,4 C 1,6 km/h (1 Bft) 100,00 %
25.05.2019 10:40 22,2 C 21,3 C 49 % 55 % 1014,6 hPa 0,0 l/m 0,0 km/h (0 Bft) NW 315 11,9 C 21,3 C 1,6 km/h (1 Bft) 100,00 %
25.05.2019 10:35 22,2 C 21,3 C 49 % 59 % 1014,6 hPa 0,0 l/m 0,0 km/h (0 Bft) NW 315 13,0 C 21,3 C 1,6 km/h (1 Bft) 100,00 %
25.05.2019 10:30 22,1 C 20,9 C 49 % 58 % 1014,6 hPa 0,0 l/m 0,0 km/h (0 Bft) N 0 12,3 C 20,9 C 0,0 km/h (0 Bft) 100,00 %
25.05.2019 10:25 22,1 C 20,8 C 49 % 56 % 1014,6 hPa 0,0 l/m 0,0 km/h (0 Bft) S-SO 157 11,7 C 20,8 C 1,6 km/h (1 Bft) 100,00 %
25.05.2019 10:20 22,1 C 20,7 C 49 % 56 % 1014,6 hPa 0,0 l/m 0,0 km/h (0 Bft) S-SO 157 11,6 C 20,7 C 1,6 km/h (1 Bft) 100,00 %
25.05.2019 10:15 22,1 C 20,6 C 49 % 58 % 1014,6 hPa 0,0 l/m 0,0 km/h (0 Bft) S-SO 157 12,0 C 20,6 C 1,6 km/h (1 Bft) 100,00 %
25.05.2019 10:10 22,1 C 20,7 C 50 % 58 % 1014,7 hPa 0,0 l/m 0,0 km/h (0 Bft) N 0 12,1 C 20,7 C 0,0 km/h (0 Bft) 100,00 %
25.05.2019 10:05 22,1 C 20,6 C 50 % 58 % 1014,7 hPa 0,0 l/m 0,0 km/h (0 Bft) N 0 12,0 C 20,6 C 0,0 km/h (0 Bft) 100,00 %
25.05.2019 10:00 22,1 C 20,2 C 50 % 61 % 1014,7 hPa 0,0 l/m 0,0 km/h (0 Bft) N 0 12,4 C 20,2 C 0,0 km/h (0 Bft) 100,00 %
25.05.2019 09:55 22,0 C 19,7 C 50 % 65 % 1014,6 hPa 0,0 l/m 0,0 km/h (0 Bft) N 0 12,9 C 19,7 C 0,0 km/h (0 Bft) 100,00 %
25.05.2019 09:50 21,9 C 19,6 C 50 % 62 % 1014,7 hPa 0,0 l/m 0,0 km/h (0 Bft) N 0 12,1 C 19,6 C 0,0 km/h (0 Bft) 100,00 %
25.05.2019 09:45 21,9 C 19,4 C 50 % 67 % 1014,6 hPa 0,0 l/m 0,0 km/h (0 Bft) N 0 13,1 C 19,4 C 0,0 km/h (0 Bft) 100,00 %
25.05.2019 09:40 21,9 C 19,1 C 50 % 66 % 1014,6 hPa 0,0 l/m 0,0 km/h (0 Bft) N 0 12,6 C 19,1 C 0,0 km/h (0 Bft) 100,00 %
25.05.2019 09:35 21,9 C 18,8 C 49 % 67 % 1014,6 hPa 0,0 l/m 0,0 km/h (0 Bft) N 0 12,5 C 18,8 C 0,0 km/h (0 Bft) 100,00 %
25.05.2019 09:30 21,9 C 18,6 C 50 % 67 % 1014,7 hPa 0,0 l/m 0,0 km/h (0 Bft) SW 225 12,3 C 18,6 C 3,2 km/h (1 Bft) 100,00 %
25.05.2019 09:25 21,8 C 18,4 C 49 % 68 % 1014,7 hPa 0,0 l/m 0,0 km/h (0 Bft) W 270 12,4 C 18,4 C 1,6 km/h (1 Bft) 100,00 %
25.05.2019 09:20 21,8 C 18,3 C 49 % 67 % 1014,6 hPa 0,0 l/m 0,0 km/h (0 Bft) W 270 12,1 C 18,3 C 3,2 km/h (1 Bft) 100,00 %
25.05.2019 09:15 21,8 C 18,1 C 49 % 69 % 1014,6 hPa 0,0 l/m 0,0 km/h (0 Bft) W 270 12,3 C 18,1 C 1,6 km/h (1 Bft) 100,00 %
25.05.2019 09:10 21,8 C 17,7 C 49 % 70 % 1014,6 hPa 0,0 l/m 0,0 km/h (0 Bft) N 0 12,2 C 17,7 C 0,0 km/h (0 Bft) 100,00 %
25.05.2019 09:05 21,7 C 17,5 C 48 % 70 % 1014,6 hPa 0,0 l/m 0,0 km/h (0 Bft) W-SW 247 12,0 C 17,5 C 1,6 km/h (1 Bft) 100,00 %
25.05.2019 09:00 21,7 C 17,4 C 48 % 69 % 1014,5 hPa 0,0 l/m 0,0 km/h (0 Bft) W-SW 247 11,7 C 17,4 C 1,6 km/h (1 Bft) 100,00 %
25.05.2019 08:55 21,7 C 17,3 C 48 % 69 % 1014,5 hPa 0,0 l/m 0,0 km/h (0 Bft) W-SW 247 11,6 C 17,3 C 1,6 km/h (1 Bft) 100,00 %
25.05.2019 08:50 21,7 C 17,2 C 48 % 70 % 1014,5 hPa 0,0 l/m 0,0 km/h (0 Bft) N 0 11,7 C 17,2 C 0,0 km/h (0 Bft) 100,00 %
25.05.2019 08:45 21,7 C 17,0 C 48 % 70 % 1014,5 hPa 0,0 l/m 0,0 km/h (0 Bft) N 0 11,5 C 17,0 C 0,0 km/h (0 Bft) 100,00 %
25.05.2019 08:40 21,7 C 16,7 C 48 % 73 % 1014,5 hPa 0,0 l/m 0,0 km/h (0 Bft) W-SW 247 11,8 C 16,7 C 1,6 km/h (1 Bft) 100,00 %
25.05.2019 08:35 21,7 C 16,5 C 48 % 71 % 1014,5 hPa 0,0 l/m 0,0 km/h (0 Bft) W-SW 247 11,2 C 16,5 C 1,6 km/h (1 Bft) 100,00 %
25.05.2019 08:30 21,7 C 16,2 C 48 % 71 % 1014,5 hPa 0,0 l/m 0,0 km/h (0 Bft) N 0 10,9 C 16,2 C 0,0 km/h (0 Bft) 100,00 %
25.05.2019 08:25 21,7 C 16,1 C 48 % 72 % 1014,5 hPa 0,0 l/m 0,0 km/h (0 Bft) SW 225 11,0 C 16,1 C 1,6 km/h (1 Bft) 100,00 %
25.05.2019 08:20 21,6 C 16,0 C 48 % 72 % 1014,5 hPa 0,0 l/m 0,0 km/h (0 Bft) N 0 11,0 C 16,0 C 0,0 km/h (0 Bft) 100,00 %
25.05.2019 08:15 21,6 C 15,8 C 48 % 73 % 1014,5 hPa 0,0 l/m 0,0 km/h (0 Bft) N 0 11,0 C 15,8 C 0,0 km/h (0 Bft) 100,00 %
25.05.2019 08:10 21,6 C 15,7 C 48 % 73 % 1014,5 hPa 0,0 l/m 0,0 km/h (0 Bft) N 0 10,9 C 15,7 C 0,0 km/h (0 Bft) 100,00 %
25.05.2019 08:05 21,6 C 15,8 C 48 % 73 % 1014,5 hPa 0,0 l/m 0,0 km/h (0 Bft) SW 225 11,0 C 15,8 C 1,6 km/h (1 Bft) 100,00 %
25.05.2019 08:00 21,6 C 16,2 C 48 % 71 % 1014,5 hPa 0,0 l/m 0,0 km/h (0 Bft) N 0 10,9 C 16,2 C 0,0 km/h (0 Bft) 100,00 %
25.05.2019 07:55 21,6 C 16,4 C 47 % 69 % 1014,5 hPa 0,0 l/m 0,0 km/h (0 Bft) N 0 10,7 C 16,4 C 0,0 km/h (0 Bft) 100,00 %
25.05.2019 07:50 21,6 C 16,2 C 47 % 69 % 1014,4 hPa 0,0 l/m 0,0 km/h (0 Bft) N 0 10,5 C 16,2 C 0,0 km/h (0 Bft) 100,00 %
25.05.2019 07:45 21,6 C 15,7 C 47 % 70 % 1014,4 hPa 0,0 l/m 0,0 km/h (0 Bft) SW 225 10,2 C 15,7 C 1,6 km/h (1 Bft) 100,00 %
25.05.2019 07:40 21,6 C 15,2 C 47 % 71 % 1014,4 hPa 0,0 l/m 0,0 km/h (0 Bft) N 0 10,0 C 15,2 C 0,0 km/h (0 Bft) 100,00 %
25.05.2019 07:35 21,6 C 14,9 C 47 % 72 % 1014,4 hPa 0,0 l/m 0,0 km/h (0 Bft) N 0 9,9 C 14,9 C 0,0 km/h (0 Bft) 100,00 %
25.05.2019 07:30 21,6 C 14,4 C 47 % 74 % 1014,4 hPa 0,0 l/m 0,0 km/h (0 Bft) N 0 9,8 C 14,4 C 0,0 km/h (0 Bft) 100,00 %
25.05.2019 07:25 21,6 C 14,1 C 47 % 74 % 1014,4 hPa 0,0 l/m 0,0 km/h (0 Bft) N 0 9,5 C 14,1 C 0,0 km/h (0 Bft) 100,00 %
25.05.2019 07:20 21,6 C 13,8 C 47 % 77 % 1014,4 hPa 0,0 l/m 0,0 km/h (0 Bft) N 0 9,8 C 13,8 C 0,0 km/h (0 Bft) 100,00 %
25.05.2019 07:15 21,6 C 13,5 C 47 % 77 % 1014,4 hPa 0,0 l/m 0,0 km/h (0 Bft) N 0 9,5 C 13,5 C 0,0 km/h (0 Bft) 100,00 %
25.05.2019 07:10 21,5 C 12,9 C 47 % 81 % 1014,4 hPa 0,0 l/m 0,0 km/h (0 Bft) N 0 9,7 C 12,9 C 0,0 km/h (0 Bft) 100,00 %
25.05.2019 07:05 21,5 C 12,5 C 47 % 82 % 1014,4 hPa 0,0 l/m 0,0 km/h (0 Bft) N 0 9,5 C 12,5 C 0,0 km/h (0 Bft) 100,00 %
25.05.2019 07:00 21,5 C 11,9 C 47 % 84 % 1014,4 hPa 0,0 l/m 0,0 km/h (0 Bft) N 0 9,3 C 11,9 C 0,0 km/h (0 Bft) 100,00 %
25.05.2019 06:55 21,5 C 11,4 C 47 % 86 % 1014,4 hPa 0,0 l/m 0,0 km/h (0 Bft) N 0 9,1 C 11,4 C 0,0 km/h (0 Bft) 100,00 %
25.05.2019 06:50 21,5 C 10,9 C 47 % 86 % 1014,3 hPa 0,0 l/m 0,0 km/h (0 Bft) N 0 8,7 C 10,9 C 0,0 km/h (0 Bft) 100,00 %
25.05.2019 06:45 21,5 C 10,7 C 47 % 87 % 1014,3 hPa 0,0 l/m 0,0 km/h (0 Bft) N 0 8,6 C 10,7 C 0,0 km/h (0 Bft) 100,00 %
25.05.2019 06:40 21,5 C 10,7 C 47 % 86 % 1014,3 hPa 0,0 l/m 0,0 km/h (0 Bft) W-SW 247 8,5 C 10,7 C 1,6 km/h (1 Bft) 100,00 %
25.05.2019 06:35 21,5 C 10,7 C 47 % 88 % 1014,3 hPa 0,0 l/m 0,0 km/h (0 Bft) N 0 8,8 C 10,7 C 0,0 km/h (0 Bft) 100,00 %
25.05.2019 06:30 21,5 C 10,4 C 47 % 89 % 1014,2 hPa 0,0 l/m 0,0 km/h (0 Bft) N 0 8,7 C 10,4 C 0,0 km/h (0 Bft) 100,00 %
25.05.2019 06:25 21,5 C 10,1 C 47 % 90 % 1014,2 hPa 0,0 l/m 0,0 km/h (0 Bft) N 0 8,5 C 10,1 C 0,0 km/h (0 Bft) 100,00 %
25.05.2019 06:20 21,5 C 9,8 C 47 % 90 % 1014,3 hPa 0,0 l/m 0,0 km/h (0 Bft) N 0 8,2 C 9,8 C 0,0 km/h (0 Bft) 100,00 %
25.05.2019 06:15 21,5 C 9,5 C 47 % 91 % 1014,2 hPa 0,0 l/m 0,0 km/h (0 Bft) N 0 8,1 C 9,5 C 0,0 km/h (0 Bft) 100,00 %
25.05.2019 06:10 21,5 C 9,3 C 47 % 91 % 1014,2 hPa 0,0 l/m 0,0 km/h (0 Bft) N 0 7,9 C 9,3 C 0,0 km/h (0 Bft) 100,00 %
25.05.2019 06:05 21,5 C 9,0 C 47 % 91 % 1014,1 hPa 0,0 l/m 0,0 km/h (0 Bft) N 0 7,6 C 9,0 C 0,0 km/h (0 Bft) 100,00 %
25.05.2019 06:00 21,5 C 8,8 C 47 % 91 % 1014,2 hPa 0,0 l/m 0,0 km/h (0 Bft) N 0 7,4 C 8,8 C 0,0 km/h (0 Bft) 100,00 %
25.05.2019 05:55 21,5 C 8,8 C 47 % 91 % 1014,1 hPa 0,0 l/m 0,0 km/h (0 Bft) N 0 7,4 C 8,8 C 0,0 km/h (0 Bft) 100,00 %
25.05.2019 05:50 21,6 C 8,7 C 47 % 90 % 1014,1 hPa 0,0 l/m 0,0 km/h (0 Bft) N 0 7,2 C 8,7 C 0,0 km/h (0 Bft) 100,00 %
25.05.2019 05:45 21,6 C 8,8 C 47 % 90 % 1014,1 hPa 0,0 l/m 0,0 km/h (0 Bft) N 0 7,3 C 8,8 C 0,0 km/h (0 Bft) 100,00 %
25.05.2019 05:40 21,6 C 8,9 C 47 % 89 % 1014,1 hPa 0,0 l/m 0,0 km/h (0 Bft) N 0 7,2 C 8,9 C 0,0 km/h (0 Bft) 100,00 %
25.05.2019 05:35 21,6 C 9,0 C 47 % 88 % 1014,1 hPa 0,0 l/m 0,0 km/h (0 Bft) N 0 7,1 C 9,0 C 0,0 km/h (0 Bft) 100,00 %
25.05.2019 05:30 21,6 C 9,1 C 46 % 89 % 1014,1 hPa 0,0 l/m 0,0 km/h (0 Bft) N 0 7,4 C 9,1 C 0,0 km/h (0 Bft) 100,00 %
25.05.2019 05:25 21,6 C 9,2 C 46 % 88 % 1014,0 hPa 0,0 l/m 0,0 km/h (0 Bft) N 0 7,3 C 9,2 C 0,0 km/h (0 Bft) 100,00 %
25.05.2019 05:20 21,6 C 9,3 C 46 % 88 % 1014,0 hPa 0,0 l/m 0,0 km/h (0 Bft) N 0 7,4 C 9,3 C 0,0 km/h (0 Bft) 100,00 %
25.05.2019 05:15 21,6 C 9,3 C 46 % 87 % 1013,9 hPa 0,0 l/m 0,0 km/h (0 Bft) N 0 7,2 C 9,3 C 0,0 km/h (0 Bft) 100,00 %
25.05.2019 05:10 21,6 C 9,4 C 46 % 87 % 1013,9 hPa 0,0 l/m 0,0 km/h (0 Bft) N 0 7,3 C 9,4 C 0,0 km/h (0 Bft) 100,00 %
25.05.2019 05:05 21,6 C 9,5 C 46 % 87 % 1013,8 hPa 0,0 l/m 0,0 km/h (0 Bft) N 0 7,4 C 9,5 C 0,0 km/h (0 Bft) 100,00 %
25.05.2019 05:00 21,6 C 9,5 C 46 % 87 % 1013,8 hPa 0,0 l/m 0,0 km/h (0 Bft) N 0 7,4 C 9,5 C 0,0 km/h (0 Bft) 100,00 %
25.05.2019 04:55 21,6 C 9,6 C 46 % 87 % 1013,7 hPa 0,0 l/m 0,0 km/h (0 Bft) N 0 7,5 C 9,6 C 0,0 km/h (0 Bft) 100,00 %
25.05.2019 04:50 21,6 C 9,6 C 46 % 87 % 1013,8 hPa 0,0 l/m 0,0 km/h (0 Bft) N 0 7,5 C 9,6 C 0,0 km/h (0 Bft) 100,00 %
25.05.2019 04:45 21,7 C 9,5 C 46 % 87 % 1013,7 hPa 0,0 l/m 0,0 km/h (0 Bft) N 0 7,4 C 9,5 C 0,0 km/h (0 Bft) 100,00 %
25.05.2019 04:40 21,7 C 9,6 C 46 % 86 % 1013,7 hPa 0,0 l/m 0,0 km/h (0 Bft) N 0 7,4 C 9,6 C 0,0 km/h (0 Bft) 100,00 %
25.05.2019 04:35 21,7 C 9,7 C 46 % 86 % 1013,8 hPa 0,0 l/m 0,0 km/h (0 Bft) N 0 7,5 C 9,7 C 0,0 km/h (0 Bft) 100,00 %
25.05.2019 04:30 21,7 C 9,8 C 46 % 86 % 1013,8 hPa 0,0 l/m 0,0 km/h (0 Bft) N 0 7,6 C 9,8 C 0,0 km/h (0 Bft) 100,00 %
25.05.2019 04:25 21,7 C 9,8 C 46 % 86 % 1013,8 hPa 0,0 l/m 0,0 km/h (0 Bft) N 0 7,6 C 9,8 C 0,0 km/h (0 Bft) 100,00 %
25.05.2019 04:20 21,7 C 9,8 C 46 % 85 % 1013,8 hPa 0,0 l/m 0,0 km/h (0 Bft) N 0 7,4 C 9,8 C 0,0 km/h (0 Bft) 100,00 %
25.05.2019 04:15 21,7 C 10,0 C 46 % 85 % 1013,8 hPa 0,0 l/m 0,0 km/h (0 Bft) N 0 7,6 C 10,0 C 0,0 km/h (0 Bft) 100,00 %
25.05.2019 04:10 21,7 C 10,1 C 46 % 85 % 1013,8 hPa 0,0 l/m 0,0 km/h (0 Bft) N 0 7,7 C 10,1 C 0,0 km/h (0 Bft) 100,00 %
25.05.2019 04:05 21,7 C 10,1 C 46 % 85 % 1013,8 hPa 0,0 l/m 0,0 km/h (0 Bft) N 0 7,7 C 10,1 C 0,0 km/h (0 Bft) 100,00 %
25.05.2019 04:00 21,7 C 10,1 C 46 % 85 % 1013,8 hPa 0,0 l/m 0,0 km/h (0 Bft) N 0 7,7 C 10,1 C 0,0 km/h (0 Bft) 100,00 %
25.05.2019 03:55 21,7 C 9,9 C 46 % 86 % 1013,9 hPa 0,0 l/m 0,0 km/h (0 Bft) N 0 7,7 C 9,9 C 0,0 km/h (0 Bft) 100,00 %
25.05.2019 03:50 21,7 C 9,9 C 46 % 86 % 1013,9 hPa 0,0 l/m 0,0 km/h (0 Bft) N 0 7,7 C 9,9 C 0,0 km/h (0 Bft) 100,00 %
25.05.2019 03:45 21,7 C 9,9 C 46 % 85 % 1013,9 hPa 0,0 l/m 0,0 km/h (0 Bft) N 0 7,5 C 9,9 C 0,0 km/h (0 Bft) 100,00 %
25.05.2019 03:40 21,7 C 9,9 C 46 % 84 % 1013,9 hPa 0,0 l/m 0,0 km/h (0 Bft) N 0 7,3 C 9,9 C 0,0 km/h (0 Bft) 100,00 %
25.05.2019 03:35 21,8 C 10,0 C 46 % 84 % 1013,9 hPa 0,0 l/m 0,0 km/h (0 Bft) N 0 7,4 C 10,0 C 0,0 km/h (0 Bft) 100,00 %
25.05.2019 03:30 21,8 C 10,1 C 46 % 84 % 1013,8 hPa 0,0 l/m 0,0 km/h (0 Bft) N 0 7,5 C 10,1 C 0,0 km/h (0 Bft) 100,00 %
25.05.2019 03:25 21,8 C 10,1 C 46 % 84 % 1013,9 hPa 0,0 l/m 0,0 km/h (0 Bft) N 0 7,5 C 10,1 C 0,0 km/h (0 Bft) 100,00 %
25.05.2019 03:20 21,8 C 10,1 C 46 % 84 % 1013,8 hPa 0,0 l/m 0,0 km/h (0 Bft) N 0 7,5 C 10,1 C 0,0 km/h (0 Bft) 100,00 %
25.05.2019 03:15 21,8 C 10,1 C 46 % 84 % 1013,9 hPa 0,0 l/m 0,0 km/h (0 Bft) N 0 7,5 C 10,1 C 0,0 km/h (0 Bft) 100,00 %
25.05.2019 03:10 21,8 C 10,0 C 46 % 84 % 1013,9 hPa 0,0 l/m 0,0 km/h (0 Bft) N 0 7,4 C 10,0 C 0,0 km/h (0 Bft) 100,00 %
25.05.2019 03:05 21,8 C 10,1 C 46 % 83 % 1013,8 hPa 0,0 l/m 0,0 km/h (0 Bft) N 0 7,3 C 10,1 C 0,0 km/h (0 Bft) 100,00 %
25.05.2019 02:55 21,8 C 10,4 C 46 % 82 % 1013,7 hPa 0,0 l/m 0,0 km/h (0 Bft) N 0 7,5 C 10,4 C 0,0 km/h (0 Bft) 100,00 %
25.05.2019 02:50 21,8 C 10,6 C 46 % 82 % 1013,7 hPa 0,0 l/m 0,0 km/h (0 Bft) N 0 7,7 C 10,6 C 0,0 km/h (0 Bft) 100,00 %
25.05.2019 02:45 21,8 C 10,7 C 46 % 82 % 1013,7 hPa 0,0 l/m 0,0 km/h (0 Bft) N 0 7,8 C 10,7 C 0,0 km/h (0 Bft) 100,00 %
25.05.2019 02:40 21,8 C 10,7 C 46 % 82 % 1013,8 hPa 0,0 l/m 0,0 km/h (0 Bft) N 0 7,8 C 10,7 C 0,0 km/h (0 Bft) 100,00 %
25.05.2019 02:35 21,8 C 10,7 C 46 % 82 % 1013,7 hPa 0,0 l/m 0,0 km/h (0 Bft) N 0 7,8 C 10,7 C 0,0 km/h (0 Bft) 100,00 %
25.05.2019 02:30 21,8 C 10,8 C 46 % 80 % 1013,7 hPa 0,0 l/m 0,0 km/h (0 Bft) N 0 7,5 C 10,8 C 0,0 km/h (0 Bft) 100,00 %
25.05.2019 02:25 21,8 C 10,9 C 46 % 80 % 1013,7 hPa 0,0 l/m 0,0 km/h (0 Bft) N 0 7,6 C 10,9 C 0,0 km/h (0 Bft) 100,00 %
25.05.2019 02:20 21,8 C 10,8 C 46 % 81 % 1013,8 hPa 0,0 l/m 0,0 km/h (0 Bft) N 0 7,7 C 10,8 C 0,0 km/h (0 Bft) 100,00 %
25.05.2019 02:15 21,8 C 10,7 C 46 % 81 % 1013,8 hPa 0,0 l/m 0,0 km/h (0 Bft) N 0 7,6 C 10,7 C 0,0 km/h (0 Bft) 100,00 %
25.05.2019 02:10 21,9 C 10,8 C 46 % 80 % 1013,9 hPa 0,0 l/m 0,0 km/h (0 Bft) N 0 7,5 C 10,8 C 0,0 km/h (0 Bft) 100,00 %
25.05.2019 02:05 21,8 C 11,0 C 46 % 80 % 1013,9 hPa 0,0 l/m 0,0 km/h (0 Bft) N 0 7,7 C 11,0 C 0,0 km/h (0 Bft) 100,00 %
25.05.2019 02:00 21,9 C 11,1 C 46 % 79 % 1014,0 hPa 0,0 l/m 0,0 km/h (0 Bft) N 0 7,6 C 11,1 C 0,0 km/h (0 Bft) 100,00 %
25.05.2019 01:55 21,9 C 11,2 C 46 % 79 % 1014,0 hPa 0,0 l/m 0,0 km/h (0 Bft) N 0 7,7 C 11,2 C 0,0 km/h (0 Bft) 100,00 %
25.05.2019 01:50 21,9 C 11,3 C 46 % 79 % 1013,9 hPa 0,0 l/m 0,0 km/h (0 Bft) N 0 7,8 C 11,3 C 0,0 km/h (0 Bft) 100,00 %
25.05.2019 01:45 21,9 C 11,4 C 46 % 78 % 1013,9 hPa 0,0 l/m 0,0 km/h (0 Bft) N 0 7,7 C 11,4 C 0,0 km/h (0 Bft) 100,00 %
25.05.2019 01:40 21,9 C 11,6 C 46 % 78 % 1014,0 hPa 0,0 l/m 0,0 km/h (0 Bft) N 0 7,9 C 11,6 C 0,0 km/h (0 Bft) 100,00 %
25.05.2019 01:35 21,9 C 11,7 C 46 % 78 % 1014,0 hPa 0,0 l/m 0,0 km/h (0 Bft) N 0 8,0 C 11,7 C 0,0 km/h (0 Bft) 100,00 %
25.05.2019 01:30 21,9 C 11,7 C 46 % 78 % 1014,0 hPa 0,0 l/m 0,0 km/h (0 Bft) N 0 8,0 C 11,7 C 0,0 km/h (0 Bft) 100,00 %
25.05.2019 01:25 21,9 C 11,7 C 46 % 78 % 1014,0 hPa 0,0 l/m 0,0 km/h (0 Bft) N 0 8,0 C 11,7 C 0,0 km/h (0 Bft) 100,00 %
25.05.2019 01:20 21,9 C 11,7 C 46 % 78 % 1014,0 hPa 0,0 l/m 0,0 km/h (0 Bft) N 0 8,0 C 11,7 C 0,0 km/h (0 Bft) 100,00 %
25.05.2019 01:15 21,9 C 11,6 C 46 % 78 % 1014,0 hPa 0,0 l/m 0,0 km/h (0 Bft) N 0 7,9 C 11,6 C 0,0 km/h (0 Bft) 100,00 %
25.05.2019 01:10 21,9 C 11,5 C 46 % 78 % 1014,0 hPa 0,0 l/m 0,0 km/h (0 Bft) N 0 7,8 C 11,5 C 0,0 km/h (0 Bft) 100,00 %
25.05.2019 01:05 21,9 C 11,4 C 46 % 79 % 1014,1 hPa 0,0 l/m 0,0 km/h (0 Bft) N 0 7,9 C 11,4 C 0,0 km/h (0 Bft) 100,00 %
25.05.2019 01:00 21,9 C 11,3 C 46 % 79 % 1014,0 hPa 0,0 l/m 0,0 km/h (0 Bft) N 0 7,8 C 11,3 C 0,0 km/h (0 Bft) 100,00 %
25.05.2019 00:55 21,9 C 11,4 C 46 % 78 % 1014,0 hPa 0,0 l/m 0,0 km/h (0 Bft) N 0 7,7 C 11,4 C 0,0 km/h (0 Bft) 100,00 %
25.05.2019 00:50 21,9 C 11,6 C 46 % 77 % 1014,1 hPa 0,0 l/m 0,0 km/h (0 Bft) N 0 7,7 C 11,6 C 0,0 km/h (0 Bft) 100,00 %
25.05.2019 00:45 21,9 C 11,6 C 46 % 78 % 1014,1 hPa 0,0 l/m 0,0 km/h (0 Bft) N 0 7,9 C 11,6 C 0,0 km/h (0 Bft) 100,00 %
25.05.2019 00:40 21,9 C 11,6 C 46 % 78 % 1014,1 hPa 0,0 l/m 0,0 km/h (0 Bft) N 0 7,9 C 11,6 C 0,0 km/h (0 Bft) 100,00 %
25.05.2019 00:35 21,9 C 11,7 C 46 % 77 % 1014,1 hPa 0,0 l/m 0,0 km/h (0 Bft) N 0 7,8 C 11,7 C 0,0 km/h (0 Bft) 100,00 %
25.05.2019 00:30 21,9 C 11,7 C 46 % 77 % 1014,1 hPa 0,0 l/m 0,0 km/h (0 Bft) N 0 7,8 C 11,7 C 0,0 km/h (0 Bft) 100,00 %
25.05.2019 00:25 21,9 C 11,9 C 46 % 77 % 1014,0 hPa 0,0 l/m 0,0 km/h (0 Bft) N 0 8,0 C 11,9 C 0,0 km/h (0 Bft) 100,00 %
25.05.2019 00:20 21,9 C 12,1 C 46 % 76 % 1014,0 hPa 0,0 l/m 0,0 km/h (0 Bft) N 0 8,0 C 12,1 C 0,0 km/h (0 Bft) 100,00 %
25.05.2019 00:15 21,9 C 12,2 C 46 % 76 % 1014,0 hPa 0,0 l/m 0,0 km/h (0 Bft) N 0 8,1 C 12,2 C 0,0 km/h (0 Bft) 100,00 %
25.05.2019 00:10 21,9 C 12,1 C 46 % 77 % 1014,1 hPa 0,0 l/m 0,0 km/h (0 Bft) N 0 8,2 C 12,1 C 0,0 km/h (0 Bft) 100,00 %
25.05.2019 00:05 21,9 C 11,9 C 46 % 78 % 1014,0 hPa 0,0 l/m 0,0 km/h (0 Bft) N 0 8,2 C 11,9 C 0,0 km/h (0 Bft) 100,00 %
25.05.2019 00:00 21,9 C 11,7 C 46 % 78 % 1014,0 hPa 0,0 l/m 0,0 km/h (0 Bft) N 0 8,0 C 11,7 C 0,0 km/h (0 Bft) 100,00 %
_ Min-Zeit 05:55 05:45 13:25 13:55 16:50 - 00:00 - - 05:35 05:50 00:00 00:00
Minimum _ 21,5 C 8,7 C 45 % 40 % 1012,4 hPa - 0,0 km/h (0 Bft) - - 7,1 C 8,7 C 0,0 km/h (0 Bft) 100,00 %
_ Max-Zeit 17:00 14:25 09:30 05:55 09:25 00:00 15:30 - - 09:45 14:30 15:30 00:00
Maximum _ 23,5 C 24,6 C 50 % 91 % 1014,7 hPa 0,0 l/m 3,2 km/h
SW (1 Bft)
- - 13,1 C 24,6 C 9,7 km/h
W-SW (2 Bft)
100,00 %
Durchschnitt _ 22,2 C 16,8 C 47 % 66 % 1013,9 hPa #0,0 l/m 0,1 km/h (0 Bft) SW - 9,8 C 16,8 C 1,4 km/h (1 Bft) 100,00 %